YAOGAN-30 AA (48860 NORAD) Tracking and Keplerian Element Data

This shows tracking and keplerian element data for the satellite.

Feedback or suggestion? Click here.




ElementValue
Catalog48860
NameYAOGAN-30 AA
Epoch Orbit679
Epoch Day214.98341845
Epoch Year2021
RAAN67.1969
Inclination34.9969
Eccentricity0.0005447
Argument of Perigee162.7399
Mean Anonmoly197.3491
Mean Motion14.89951654
Decay Rate2.35E-06
L11 48860U 21055A 21214.98341845 .00000235 00000-0 26663-4 0 9998
L22 48860 34.9969 67.1969 0005447 162.7399 197.3491 14.89951654 6791

Live tracking and technical data element details for YAOGAN-30 AA (NORAD 48860). YAOGAN-30 AA can be tracked NOW for your location showing map with azimuth and elevation plus other details from your city location.

Track the satellite on the map from your city or location and see movement details for azimuth, elevation, latitude, longitude, range, height, and movement on the map or in text.







IsCatalogInMostPopularTable: catalog: 48860, numindb: 10
Update: records affected: 1



GetName: 48860 YAOGAN-30 AA

Hit Count: updated at: Tue, 03 Aug 2021 21:03:43 GMT